N8DH Weather Reports


Display with metric or nautical units.
time (UTC)temp
F
wind
direction
speed
MPH
gust
MPH
rain 1hr
in
rain 24hr
in
rain mn
in
humidity
%
barometer
mb
20260507011553 46 40 0.0 0.0 0.00 0.54 0.20 85 1007.1
20260507010120 47 40 0.0 0.0 0.00 0.54 0.20 82 1007.0
20260507004528 48 40 0.0 0.0 0.00 0.56 0.20 70 1007.0
20260507003053 48 40 0.0 0.0 0.00 0.56 0.20 73 1006.9
20260507001635 49 42 0.0 2.0 0.00 0.56 0.20 65 1006.9
20260507000012 49 286 0.0 2.0 0.00 0.63 0.20 64 1007.0
20260506234558 50 291 0.0 2.0 0.00 0.63 0.20 64 1007.0
20260506233010 50 28 1.0 3.0 0.00 0.63 0.20 64 1006.9
20260506231603 50 30 0.0 3.0 0.00 0.63 0.20 63 1006.8
20260506230009 50 288 1.0 4.0 0.00 0.74 0.20 60 1006.8
20260506224552 50 340 1.0 4.0 0.00 0.74 0.20 58 1006.9
20260506223105 51 246 1.0 4.0 0.00 0.74 0.20 61 1006.8
20260506221505 51 336 0.0 4.0 0.00 0.74 0.20 63 1006.9
20260506220052 51 280 2.0 6.0 0.00 0.74 0.20 56 1006.6
20260506214639 52 272 1.0 6.0 0.00 0.88 0.20 57 1006.5
20260506213056 52 244 2.0 4.0 0.00 0.88 0.20 57 1006.2
20260506211612 53 9 0.0 5.0 0.00 0.88 0.20 60 1005.9
20260506210027 52 298 1.0 8.0 0.00 1.07 0.20 57 1005.8
20260506204558 53 274 1.0 4.0 0.00 1.07 0.20 57 1005.8
20260506203136 53 265 2.0 4.0 0.00 1.07 0.20 58 1005.7
20260506201638 53 271 1.0 5.0 0.00 1.07 0.20 56 1005.8
20260506200139 53 272 2.0 5.0 0.00 1.07 0.20 56 1005.8
20260506194518 54 255 2.0 6.0 0.00 1.19 0.20 58 1005.7
20260506193104 54 245 4.0 8.0 0.00 1.19 0.20 54 1006.1
20260506191525 54 337 1.0 4.0 0.00 1.19 0.20 53 1005.8
20260506190109 53 340 3.0 6.0 0.00 1.19 0.20 55 1005.8
20260506184520 54 273 3.0 8.0 0.00 1.22 0.20 58 1005.9
20260506183055 54 348 1.0 6.0 0.00 1.22 0.20 60 1006.0
20260506181626 54 26 4.0 8.0 0.00 1.22 0.20 54 1006.0
20260506180147 54 9 3.0 11.0 0.00 1.22 0.20 62 1006.1
20260506174531 53 274 1.0 7.0 0.00 1.22 0.20 58 1006.1
20260506173111 54 265 2.0 6.0 0.00 1.22 0.20 58 1006.1
20260506171636 53 54 4.0 8.0 0.00 1.22 0.20 65 1005.7
20260506170039 53 290 2.0 7.0 0.00 1.22 0.20 64 1006.1
20260506164558 54 317 1.0 6.0 0.00 1.22 0.20 61 1006.2
20260506163008 55 263 3.0 8.0 0.00 1.22 0.20 68 1005.8
20260506161539 54 268 3.0 8.0 0.00 1.22 0.20 68 1005.5
20260506160117 54 221 2.0 5.0 0.00 1.22 0.20 74 1005.5
20260506154523 53 319 3.0 6.0 0.00 1.22 0.20 68 1005.2
20260506153112 53 298 3.0 6.0 0.00 1.22 0.20 71 1005.2
20260506151640 53 277 3.0 9.0 0.00 1.22 0.20 73 1005.0
20260506150058 52 11 1.0 7.0 0.00 1.22 0.20 77 1004.5
20260506144503 51 274 4.0 11.0 0.00 1.22 0.20 77 1004.5
20260506143045 51 271 3.0 9.0 0.00 1.22 0.20 82 1004.4
20260506141639 49 296 2.0 6.0 0.00 1.22 0.20 83 1004.4
20260506140035 49 252 2.0 5.0 0.00 1.22 0.20 82 1004.4
20260506134601 48 275 1.0 7.0 0.00 1.22 0.20 83 1004.1
20260506133028 47 250 3.0 8.0 0.00 1.22 0.20 83 1004.2
20260506131555 47 260 3.0 8.0 0.00 1.22 0.20 84 1004.1
20260506130141 47 340 3.0 8.0 0.00 1.22 0.20 85 1003.8
20260506124503 46 285 2.0 3.0 0.00 1.22 0.20 89 1003.6
20260506123106 45 267 2.0 4.0 0.00 1.22 0.20 90 1003.4
20260506121646 45 275 1.0 4.0 0.00 1.22 0.20 91 1003.3
20260506120027 45 312 1.0 4.0 0.00 1.22 0.20 92 1003.1
20260506114607 45 277 2.0 5.0 0.00 1.22 0.20 93 1003.1
20260506113014 45 243 1.0 3.0 0.00 1.22 0.20 93 1003.1
20260506111608 45 249 1.0 2.0 0.00 1.22 0.20 92 1002.4
20260506110019 45 292 0.0 2.0 0.00 1.22 0.20 92 1002.0
20260506104545 45 256 1.0 2.0 0.00 1.22 0.20 92 1001.8
20260506103137 45 271 0.0 2.0 0.00 1.22 0.20 93 1001.7
20260506101511 45 334 1.0 3.0 0.00 1.22 0.20 93 1001.9
20260506100057 45 230 1.0 3.0 0.00 1.22 0.20 93 1002.1
20260506094636 45 276 0.0 2.0 0.00 1.22 0.20 93 1001.0
20260506093145 45 270 0.0 2.0 0.01 1.22 0.20 93 1001.2
20260506091602 45 255 0.0 2.0 0.01 1.22 0.20 93 1001.6
20260506090145 45 263 0.0 2.0 0.02 1.22 0.20 93 1002.1
20260506084612 45 259 0.0 2.0 0.03 1.21 0.19 94 1002.0
20260506083018 45 251 0.0 2.0 0.05 1.21 0.19 94 1001.6
20260506081545 45 298 0.0 2.0 0.05 1.21 0.19 94 1001.6
20260506080108 45 309 0.0 2.0 0.06 1.20 0.18 94 1001.7
20260506073021 45 250 0.0 3.0 0.05 1.15 0.14 94 1001.8
20260506071604 46 279 1.0 3.0 0.05 1.14 0.13 94 1001.6
20260506070138 46 311 0.0 2.0 0.05 1.13 0.12 94 1001.5
20260506061618 46 28 0.0 3.0 0.04 1.10 0.08 92 1001.3
20260506060141 46 360 0.0 2.0 0.04 1.09 0.07 92 1001.7
20260506050137 46 323 0.0 2.0 0.03 1.05 0.03 92 1001.7
20260506044512 46 347 0.0 3.0 0.02 1.04 0.02 90 1001.7
20260506043100 46 350 1.0 3.0 0.03 1.04 0.02 91 1001.8
20260506041527 46 28 1.0 4.0 0.04 1.03 0.01 91 1001.9
20260506040054 47 10 2.0 4.0 0.05 1.02 0.00 92 1002.0
20260506034642 47 55 0.0 3.0 0.08 1.02 1.02 93 1002.2
20260506033155 48 299 1.0 4.0 0.11 1.01 1.01 94 1002.4
20260506031511 48 303 0.0 2.0 0.13 0.99 0.99 94 1002.5
20260506030055 48 323 0.0 2.0 0.15 0.97 0.97 94 1002.5
20260506024641 48 304 0.0 3.0 0.16 0.94 0.94 94 1002.4
20260506023030 48 306 0.0 2.0 0.18 0.90 0.90 94 1002.5
20260506021606 49 306 0.0 2.0 0.16 0.86 0.86 94 1002.3
20260506020138 49 32 0.0 2.0 0.14 0.82 0.82 94 1002.0
20260506014516 49 5 0.0 2.0 0.09 0.77 0.77 94 1001.7
20260506013109 49 16 0.0 3.0 0.05 0.72 0.72 94 1001.7